sat.trackr.live / text

‹ back to catalog

STARLINK-30829

NORAD 58158 · 2023-166J

PAYLOAD ACTIVE UNKNOWN

§ Identity

Operator
Country
US
Launch date
2023-10-29
Launch site
AFWTR
Launch vehicle
Mass (kg)
RCS (m²)

Purposes: comms

External: N2YO · Heavens-Above · Gunter

§ Orbital elements

Epoch: 2026-09-20T15:23:31.808832Z

Period
94.01 min
Inclination
53.1542°
Eccentricity
0.0001297
Mean motion
15.31687396 rev/d
Perigee alt
469.9 km
Apogee alt
471.7 km
Semi-major
6,848.9 km
B*
1.2924e-4
RAAN
32.9163°
Arg perigee
79.6602°
Mean anomaly
280.4545°
Rev number
16,304

§ Raw data

STARLINK-308291 58158U 23166J   26263.64134038  .00003646  00000+0  12924-3 0  99922 58158  53.1542  32.9163 0001297  79.6602 280.4545 15.31687396163043

JSON: /api/v1/satellites/58158 · /tle

For live sub-satellite position, see the globe view (requires WebGL).

§ Visibility from observer

Set your observer location to see the next 7 days of passes ≥ 10°. The values pass through the URL so the page stays shareable.

No JS? Fill the form by hand. The geolocation button needs JavaScript.